Powrót do katalogu

STARLINK-31424

AktywnyŁącznośćVLEO
NORAD 59247·PAYLOAD·🇺🇸 United States

Wystrzelony Mar 16, 2024 z Cape Canaveral Space Force Station

Loading…

Następne Przeloty (najbliższe 24 godziny)

TLE

ŚwieżeSource: CelesTrak SupGP

Epoka: Sep 15, 2026, 03:25 UTC

1 59247C 24049S   26258.14284722  .00056447  00000+0  20443-2 0  2587
2 59247  43.0029 150.1358 0001314 276.9501 332.7809 15.27553667    19

Śledź STARLINK-31424 w czasie rzeczywistym z AllMySat

Download on the App Store